Retour au catalogue

THORAD AGENA D DEB

ActifPO
NORAD 4943·DEBRIS·🇺🇸 United States

Lancé Apr 8, 1970 depuis Vandenberg Space Force Base

Loading…

Prochains Passages (prochaines 24 heures)

TLE

FraisSource: Space-Track

Époque: Sep 14, 2026, 09:01 UTC

1 04943U 70025GD  26257.37570116  .00000170  00000-0  52604-3 0  9994
2 04943  99.6519 213.5904 0227754 327.4624 199.8289 13.10684907693407

Suivez THORAD AGENA D DEB en temps réel avec AllMySat

Download on the App Store